Location: Unspecified
(0.0000°N, 0.0000°E)
Time: 22:19:32
(UTC+00:00)

deb Explorer IX - Pass Details

Date: 18 December 2018
Orbit: 538 x 1115 km, 38.8° (Epoch: 18 January)

Event Time Altitude Azimuth Distance (km) Brightness Sun altitude
Rises 14:50:53 0° 260° (W) 3,529 ? 41.7°
Reaches altitude 10° 14:54:37 10° 280° (W) 2,455 ? 40.9°
Maximum altitude 14:58:06 16° 317° (NW) 1,924 ? 40.2°
Drops below altitude 10° 15:01:18 10° 355° (N) 2,204 ? 39.5°
Sets 15:04:24 0° 17° (NNE) 3,005 ? 38.8°
